BCS6700 EHAM-EGGW

Flight info

Callsign BCS6700
Flight time 0h 48m
Altitude 24000
Route DRID DCT RINIS
Aircraft B763/H-SDE3FGHIM3RWXY/LB1

Departure

Time 2026-04-29 11:30
Airport Amsterdam Airport Schiphol (EHAM)

Arrival

Time 2026-04-29 12:18
Airport London Luton Airport (EGGW)
Time Latitude Longitude Altitude Speed Heading
2026-04-29 09:59 52.29728 4.76795 1 ft 0 kts 149°
2026-04-29 10:58 52.29730 4.76793 0 ft 1 kts 149°
2026-04-29 10:58 52.29743 4.76781 0 ft 2 kts 149°
2026-04-29 10:58 52.29756 4.76768 0 ft 2 kts 149°
2026-04-29 10:58 52.29769 4.76755 0 ft 2 kts 149°
2026-04-29 10:59 52.29782 4.76741 0 ft 2 kts 150°
2026-04-29 10:59 52.29796 4.76733 0 ft 2 kts 177°
2026-04-29 10:59 52.29810 4.76735 0 ft 2 kts 197°
2026-04-29 10:59 52.29824 4.76745 -1 ft 2 kts 218°
2026-04-29 11:00 52.29832 4.76757 -1 ft 0 kts 233°
2026-04-29 11:00 52.29835 4.76765 -1 ft 0 kts 236°
2026-04-29 11:08 52.29835 4.76766 -1 ft 0 kts 236°
2026-04-29 11:09 52.29823 4.76732 -1 ft 11 kts 242°
2026-04-29 11:10 52.29769 4.76570 0 ft 16 kts 246°
2026-04-29 11:10 52.29724 4.76456 0 ft 12 kts 236°
2026-04-29 11:10 52.29675 4.76333 -1 ft 13 kts 238°
2026-04-29 11:10 52.29646 4.76262 0 ft 6 kts 235°
2026-04-29 11:11 52.29621 4.76198 0 ft 7 kts 238°
2026-04-29 11:11 52.29589 4.76112 0 ft 10 kts 240°
2026-04-29 11:11 52.29548 4.75980 -1 ft 15 kts 249°
2026-04-29 11:11 52.29520 4.75881 -1 ft 5 kts 244°
2026-04-29 11:12 52.29498 4.75803 -1 ft 9 kts 247°
2026-04-29 11:12 52.29461 4.75693 -1 ft 12 kts 239°
2026-04-29 11:12 52.29442 4.75636 -1 ft 6 kts 242°
2026-04-29 11:12 52.29438 4.75625 -1 ft 0 kts 242°
2026-04-29 11:13 52.29433 4.75611 -1 ft 3 kts 244°
2026-04-29 11:13 52.29433 4.75579 -1 ft 0 kts 292°
2026-04-29 11:14 52.29443 4.75554 -1 ft 5 kts 312°
2026-04-29 11:15 52.29481 4.75507 -1 ft 8 kts 327°
2026-04-29 11:15 52.29546 4.75439 -1 ft 13 kts 328°
2026-04-29 11:15 52.29630 4.75353 -1 ft 14 kts 328°
2026-04-29 11:15 52.29717 4.75290 0 ft 12 kts 347°
2026-04-29 11:16 52.29798 4.75258 2 ft 10 kts 345°
2026-04-29 11:16 52.29832 4.75213 3 ft 5 kts 310°
2026-04-29 11:16 52.29859 4.75160 5 ft 6 kts 310°
2026-04-29 11:16 52.29905 4.75069 5 ft 16 kts 310°
2026-04-29 11:17 52.30002 4.74891 4 ft 23 kts 312°
2026-04-29 11:17 52.30113 4.74682 0 ft 25 kts 315°
2026-04-29 11:17 52.30240 4.74467 -4 ft 27 kts 317°
2026-04-29 11:17 52.30332 4.74291 -8 ft 18 kts 310°
2026-04-29 11:18 52.30410 4.74127 -9 ft 17 kts 297°
2026-04-29 11:18 52.30413 4.74000 -7 ft 0 kts 268°
2026-04-29 11:19 52.30413 4.73999 -7 ft 0 kts 268°
2026-04-29 11:20 52.30413 4.73997 -7 ft 0 kts 268°
2026-04-29 11:20 52.30413 4.73993 -7 ft 1 kts 269°
2026-04-29 11:20 52.30414 4.73958 -7 ft 0 kts 272°
2026-04-29 11:20 52.30414 4.73957 -7 ft 0 kts 272°
2026-04-29 11:21 52.30414 4.73929 -7 ft 5 kts 272°
2026-04-29 11:21 52.30416 4.73814 -7 ft 15 kts 272°
2026-04-29 11:21 52.30418 4.73625 -4 ft 13 kts 269°
2026-04-29 11:21 52.30398 4.73512 -2 ft 5 kts 248°
2026-04-29 11:22 52.30400 4.73465 -1 ft 4 kts 286°
2026-04-29 11:22 52.30433 4.73384 -1 ft 14 kts 320°
2026-04-29 11:22 52.30560 4.73343 -2 ft 21 kts
2026-04-29 11:22 52.30717 4.73355 -4 ft 22 kts
2026-04-29 11:23 52.30875 4.73368 -4 ft 23 kts
2026-04-29 11:23 52.31037 4.73384 -3 ft 23 kts
2026-04-29 11:23 52.31195 4.73396 -1 ft 22 kts
2026-04-29 11:23 52.31350 4.73411 -1 ft 23 kts
2026-04-29 11:24 52.31533 4.73428 -1 ft 29 kts
2026-04-29 11:24 52.31736 4.73448 -1 ft 29 kts
2026-04-29 11:24 52.31938 4.73465 -1 ft 25 kts
2026-04-29 11:24 52.32090 4.73351 -1 ft 24 kts 319°
2026-04-29 11:25 52.32224 4.73160 -4 ft 26 kts 317°
2026-04-29 11:25 52.32360 4.72970 -4 ft 25 kts 320°
2026-04-29 11:25 52.32496 4.72778 -3 ft 25 kts 321°
2026-04-29 11:25 52.32626 4.72596 -1 ft 24 kts 318°
2026-04-29 11:26 52.32858 4.72186 -1 ft 24 kts 311°
2026-04-29 11:26 52.32972 4.71971 -3 ft 25 kts 311°
2026-04-29 11:26 52.33094 4.71749 -4 ft 26 kts 311°
2026-04-29 11:27 52.33135 4.71493 -4 ft 14 kts 244°
2026-04-29 11:27 52.33084 4.71418 -4 ft 9 kts 220°
2026-04-29 11:27 52.33020 4.71326 -4 ft 18 kts 221°
2026-04-29 11:27 52.32915 4.71176 -4 ft 16 kts 220°
2026-04-29 11:28 52.32864 4.71020 -4 ft 16 kts 266°
2026-04-29 11:28 52.32920 4.70895 -4 ft 14 kts 350°
2026-04-29 11:28 52.33022 4.70899 -4 ft 14 kts
2026-04-29 11:28 52.33129 4.70915 -4 ft 18 kts
2026-04-29 11:29 52.33331 4.70933 -4 ft 44 kts
2026-04-29 11:29 52.33792 4.70970 -4 ft 88 kts
2026-04-29 11:29 52.34554 4.71035 -4 ft 129 kts
2026-04-29 11:29 52.35581 4.71108 60 ft 161 kts
2026-04-29 11:30 52.36683 4.70961 490 ft 162 kts
2026-04-29 11:30 52.37780 4.71139 1102 ft 156 kts 11°
2026-04-29 11:30 52.38862 4.71303 1602 ft 158 kts
2026-04-29 11:30 52.39948 4.71450 2114 ft 159 kts
2026-04-29 11:31 52.41058 4.71582 2624 ft 160 kts
2026-04-29 11:31 52.42186 4.71719 3024 ft 169 kts
2026-04-29 11:31 52.43385 4.71275 3343 ft 193 kts 329°
2026-04-29 11:31 52.44432 4.69705 3655 ft 217 kts 318°
2026-04-29 11:32 52.45535 4.67884 4155 ft 231 kts 319°
2026-04-29 11:32 52.46461 4.65612 4595 ft 256 kts 289°
2026-04-29 11:32 52.46666 4.62613 5095 ft 275 kts 270°
2026-04-29 11:32 52.46669 4.59427 5606 ft 290 kts 272°
2026-04-29 11:33 52.46559 4.56115 6354 ft 295 kts 255°
2026-04-29 11:33 52.45681 4.53156 7093 ft 297 kts 227°
2026-04-29 11:33 52.44099 4.51003 7909 ft 296 kts 210°
2026-04-29 11:33 52.42486 4.48902 8698 ft 305 kts 229°
2026-04-29 11:34 52.41362 4.45940 9506 ft 311 kts 242°
2026-04-29 11:34 52.40350 4.42852 10314 ft 316 kts 240°
2026-04-29 11:34 52.39294 4.39666 10988 ft 326 kts 241°
2026-04-29 11:34 52.38194 4.36316 11481 ft 343 kts 241°
2026-04-29 11:35 52.37047 4.32817 12035 ft 357 kts 240°
2026-04-29 11:35 52.35880 4.29251 12870 ft 361 kts 241°
2026-04-29 11:35 52.34681 4.25592 13692 ft 365 kts 241°
2026-04-29 11:35 52.33496 4.21974 14452 ft 369 kts 241°
2026-04-29 11:36 52.32282 4.18274 15208 ft 372 kts 241°
2026-04-29 11:36 52.30924 4.14664 15920 ft 376 kts 232°
2026-04-29 11:36 52.29320 4.11295 16633 ft 379 kts 232°
2026-04-29 11:36 52.27720 4.07901 17322 ft 384 kts 231°
2026-04-29 11:37 52.26079 4.04453 18014 ft 388 kts 232°
2026-04-29 11:37 52.24413 4.00961 18696 ft 392 kts 232°
2026-04-29 11:37 52.22730 3.97441 19365 ft 397 kts 232°
2026-04-29 11:37 52.21051 3.93937 20009 ft 401 kts 231°
2026-04-29 11:38 52.19309 3.90307 20660 ft 405 kts 231°
2026-04-29 11:38 52.17575 3.86701 21280 ft 410 kts 231°
2026-04-29 11:38 52.15819 3.83051 21879 ft 414 kts 231°
2026-04-29 11:38 52.14045 3.79370 22447 ft 418 kts 231°
2026-04-29 11:39 52.12260 3.75672 22995 ft 422 kts 231°
2026-04-29 11:39 52.10434 3.71897 23530 ft 426 kts 231°
2026-04-29 11:39 52.08590 3.68087 24043 ft 431 kts 231°
2026-04-29 11:39 52.06737 3.64268 24397 ft 437 kts 231°
2026-04-29 11:40 52.04817 3.60317 24432 ft 454 kts 231°
2026-04-29 11:40 52.02858 3.56262 24438 ft 470 kts 233°
2026-04-29 11:40 52.01082 3.51705 24405 ft 486 kts 243°
2026-04-29 11:40 51.99731 3.46583 24388 ft 498 kts 252°
2026-04-29 11:41 51.98871 3.41170 24381 ft 501 kts 262°
2026-04-29 11:41 51.98478 3.35609 24379 ft 497 kts 267°
2026-04-29 11:41 51.98154 3.30075 24350 ft 497 kts 264°
2026-04-29 11:41 51.97789 3.24519 24339 ft 496 kts 265°
2026-04-29 11:42 51.97408 3.18994 24336 ft 495 kts 264°
2026-04-29 11:42 51.97016 3.13421 24336 ft 494 kts 264°
2026-04-29 11:42 51.96620 3.07927 24342 ft 494 kts 264°
2026-04-29 11:42 51.96215 3.02379 24346 ft 494 kts 264°
2026-04-29 11:43 51.95810 2.96882 24346 ft 494 kts 264°
2026-04-29 11:43 51.95402 2.91395 24346 ft 494 kts 264°
2026-04-29 11:43 51.94989 2.85892 24345 ft 493 kts 264°
2026-04-29 11:43 51.94572 2.80367 24345 ft 494 kts 264°
2026-04-29 11:44 51.94154 2.74869 24344 ft 494 kts 264°
2026-04-29 11:44 51.93735 2.69395 24343 ft 494 kts 263°
2026-04-29 11:44 51.93312 2.63905 24342 ft 494 kts 263°
2026-04-29 11:44 51.92885 2.58397 24339 ft 494 kts 263°
2026-04-29 11:45 51.92453 2.52855 24336 ft 495 kts 263°
2026-04-29 11:45 51.92020 2.47342 24332 ft 495 kts 263°
2026-04-29 11:45 51.91590 2.41901 24316 ft 493 kts 263°
2026-04-29 11:45 51.91153 2.36400 23850 ft 489 kts 263°
2026-04-29 11:46 51.90748 2.30968 23185 ft 486 kts 265°
2026-04-29 11:46 51.90633 2.25591 22552 ft 481 kts 269°
2026-04-29 11:46 51.90523 2.20253 22266 ft 466 kts 268°
2026-04-29 11:46 51.90418 2.15074 22244 ft 466 kts 268°
2026-04-29 11:47 51.90293 2.09741 22247 ft 480 kts 268°
2026-04-29 11:47 51.90165 2.04327 22252 ft 484 kts 268°
2026-04-29 11:47 51.90128 1.98874 22304 ft 482 kts 274°
2026-04-29 11:47 51.90558 1.93572 22339 ft 482 kts 283°
2026-04-29 11:48 51.91512 1.88345 22340 ft 481 kts 293°
2026-04-29 11:48 51.92922 1.83556 22340 ft 476 kts 303°
2026-04-29 11:48 51.94781 1.79137 22152 ft 476 kts 311°
2026-04-29 11:48 51.96897 1.74995 21820 ft 473 kts 312°
2026-04-29 11:49 51.98937 1.70947 21469 ft 467 kts 313°
2026-04-29 11:49 52.00992 1.66925 21024 ft 459 kts 313°
2026-04-29 11:49 52.03005 1.62984 20584 ft 448 kts 313°
2026-04-29 11:49 52.04950 1.59181 20128 ft 438 kts 313°
2026-04-29 11:50 52.06879 1.55413 19666 ft 429 kts 313°
2026-04-29 11:50 52.08758 1.51739 19208 ft 420 kts 313°
2026-04-29 11:50 52.10594 1.48146 18752 ft 413 kts 313°
2026-04-29 11:50 52.12425 1.44560 18333 ft 405 kts 313°
2026-04-29 11:51 52.14177 1.41109 17942 ft 397 kts 312°
2026-04-29 11:51 52.15621 1.37334 17553 ft 394 kts 296°
2026-04-29 11:51 52.16406 1.33091 17186 ft 389 kts 281°
2026-04-29 11:51 52.16810 1.28776 16806 ft 383 kts 280°
2026-04-29 11:52 52.17186 1.24563 16421 ft 377 kts 279°
2026-04-29 11:52 52.17535 1.20380 16036 ft 372 kts 279°
2026-04-29 11:52 52.17873 1.16219 15651 ft 367 kts 278°
2026-04-29 11:52 52.18198 1.12138 15270 ft 363 kts 278°
2026-04-29 11:53 52.18516 1.08098 14940 ft 357 kts 278°
2026-04-29 11:53 52.18824 1.04138 14629 ft 351 kts 278°
2026-04-29 11:53 52.19123 1.00240 14355 ft 344 kts 278°
2026-04-29 11:53 52.19415 0.96471 14322 ft 330 kts 278°
2026-04-29 11:54 52.19695 0.92799 14334 ft 325 kts 278°
2026-04-29 11:54 52.19975 0.89127 14346 ft 331 kts 278°
2026-04-29 11:54 52.20260 0.85398 14348 ft 335 kts 278°
2026-04-29 11:54 52.20542 0.81650 14345 ft 334 kts 278°
2026-04-29 11:55 52.20822 0.77927 14345 ft 332 kts 278°
2026-04-29 11:55 52.21101 0.74204 14348 ft 333 kts 278°
2026-04-29 11:55 52.21379 0.70471 14345 ft 334 kts 278°
2026-04-29 11:55 52.21658 0.66715 14344 ft 334 kts 278°
2026-04-29 11:56 52.21937 0.62945 14345 ft 333 kts 278°
2026-04-29 11:56 52.22209 0.59234 14346 ft 333 kts 278°
2026-04-29 11:56 52.22485 0.55491 14348 ft 334 kts 278°
2026-04-29 11:56 52.22758 0.51720 14349 ft 334 kts 278°
2026-04-29 11:57 52.23028 0.47992 14347 ft 334 kts 278°
2026-04-29 11:57 52.23303 0.44224 14349 ft 334 kts 278°
2026-04-29 11:57 52.23571 0.40494 14348 ft 335 kts 278°
2026-04-29 11:57 52.23841 0.36731 14352 ft 335 kts 278°
2026-04-29 11:58 52.24113 0.32917 14347 ft 335 kts 277°
2026-04-29 11:58 52.24377 0.29207 14346 ft 335 kts 277°
2026-04-29 11:58 52.24644 0.25404 14345 ft 335 kts 277°
2026-04-29 11:58 52.24904 0.21683 14348 ft 335 kts 277°
2026-04-29 11:59 52.25166 0.17935 14344 ft 335 kts 277°
2026-04-29 11:59 52.25430 0.14152 14345 ft 335 kts 277°
2026-04-29 11:59 52.25693 0.10350 14349 ft 335 kts 277°
2026-04-29 11:59 52.25952 0.06600 14323 ft 332 kts 277°
2026-04-29 12:00 52.26208 0.02879 13984 ft 333 kts 277°
2026-04-29 12:00 52.26468 -0.00880 13637 ft 332 kts 277°
2026-04-29 12:00 52.26724 -0.04555 13232 ft 330 kts 279°
2026-04-29 12:00 52.27244 -0.08178 12664 ft 328 kts 288°
2026-04-29 12:01 52.27871 -0.11751 12132 ft 326 kts 287°
2026-04-29 12:01 52.28375 -0.15324 11590 ft 325 kts 273°
2026-04-29 12:01 52.28095 -0.18930 11234 ft 320 kts 246°
2026-04-29 12:01 52.27012 -0.21987 10895 ft 311 kts 227°
2026-04-29 12:02 52.25642 -0.24693 10567 ft 309 kts 226°
2026-04-29 12:02 52.24275 -0.27377 10241 ft 307 kts 226°
2026-04-29 12:02 52.22919 -0.30026 9919 ft 305 kts 226°
2026-04-29 12:02 52.21560 -0.32667 9584 ft 304 kts 226°
2026-04-29 12:03 52.20201 -0.35313 9261 ft 303 kts 226°
2026-04-29 12:03 52.18866 -0.37910 8935 ft 302 kts 226°
2026-04-29 12:03 52.17516 -0.40531 8612 ft 300 kts 226°
2026-04-29 12:03 52.16178 -0.43119 8286 ft 299 kts 226°
2026-04-29 12:04 52.14856 -0.45674 7964 ft 298 kts 225°
2026-04-29 12:04 52.13356 -0.47970 7615 ft 293 kts 212°
2026-04-29 12:04 52.11711 -0.49904 7300 ft 291 kts 211°
2026-04-29 12:04 52.10084 -0.51805 6987 ft 289 kts 211°
2026-04-29 12:05 52.08460 -0.53713 6655 ft 288 kts 211°
2026-04-29 12:05 52.06819 -0.55638 6332 ft 287 kts 211°
2026-04-29 12:05 52.05224 -0.57516 6047 ft 285 kts 211°
2026-04-29 12:05 52.03643 -0.59381 5936 ft 279 kts 211°
2026-04-29 12:06 52.02073 -0.61269 5571 ft 281 kts 211°
2026-04-29 12:06 52.00525 -0.63133 5306 ft 279 kts 211°
2026-04-29 12:06 51.98976 -0.65025 5035 ft 277 kts 211°
2026-04-29 12:06 51.97462 -0.66878 4990 ft 272 kts 211°
2026-04-29 12:07 51.95925 -0.68763 4999 ft 278 kts 210°
2026-04-29 12:07 51.94367 -0.70601 5000 ft 281 kts 208°
2026-04-29 12:07 51.92759 -0.72401 4993 ft 278 kts 208°
2026-04-29 12:07 51.91182 -0.74093 4989 ft 271 kts 206°
2026-04-29 12:08 51.89590 -0.75757 4990 ft 268 kts 202°
2026-04-29 12:08 51.87882 -0.76790 5016 ft 262 kts 187°
2026-04-29 12:08 51.86118 -0.77524 5000 ft 265 kts 187°
2026-04-29 12:08 51.84335 -0.78283 4995 ft 263 kts 187°
2026-04-29 12:09 51.82569 -0.79020 4998 ft 260 kts 185°
2026-04-29 12:09 51.80806 -0.79558 4996 ft 257 kts 180°
2026-04-29 12:09 51.79103 -0.79770 4984 ft 239 kts 171°
2026-04-29 12:09 51.77500 -0.79482 4980 ft 220 kts 158°
2026-04-29 12:10 51.76129 -0.78704 4938 ft 204 kts 145°
2026-04-29 12:10 51.74993 -0.77498 4910 ft 187 kts 131°
2026-04-29 12:10 51.74293 -0.75861 4722 ft 176 kts 98°
2026-04-29 12:10 51.74462 -0.73961 4518 ft 177 kts 60°
2026-04-29 12:11 51.75353 -0.72592 4404 ft 180 kts 42°
2026-04-29 12:11 51.76393 -0.71507 4264 ft 176 kts 40°
2026-04-29 12:11 51.77426 -0.70451 4038 ft 177 kts 41°
2026-04-29 12:11 51.78431 -0.69402 3820 ft 169 kts 43°
2026-04-29 12:12 51.79346 -0.68280 3592 ft 160 kts 47°
2026-04-29 12:12 51.80183 -0.67141 3371 ft 155 kts 47°
2026-04-29 12:12 51.80987 -0.66024 3202 ft 150 kts 51°
2026-04-29 12:12 51.81688 -0.64826 3212 ft 146 kts 54°
2026-04-29 12:13 51.82385 -0.63555 3142 ft 156 kts 54°
2026-04-29 12:13 51.83000 -0.62186 2960 ft 145 kts 71°
2026-04-29 12:13 51.83280 -0.60684 2805 ft 134 kts 76°
2026-04-29 12:13 51.83540 -0.59275 2700 ft 126 kts 75°
2026-04-29 12:14 51.83783 -0.57928 2630 ft 129 kts 75°
2026-04-29 12:14 51.84036 -0.56518 2573 ft 131 kts 75°
2026-04-29 12:14 51.84280 -0.55129 2555 ft 126 kts 76°
2026-04-29 12:14 51.84509 -0.53818 2422 ft 117 kts 75°
2026-04-29 12:15 51.84728 -0.52586 2309 ft 114 kts 75°
2026-04-29 12:15 51.84946 -0.51327 2167 ft 116 kts 76°
2026-04-29 12:15 51.85156 -0.50068 2019 ft 117 kts 76°
2026-04-29 12:15 51.85357 -0.48811 1826 ft 117 kts 76°
2026-04-29 12:16 51.85578 -0.47478 1774 ft 129 kts 77°
2026-04-29 12:16 51.85836 -0.46054 1698 ft 130 kts 73°
2026-04-29 12:16 51.86158 -0.44729 1389 ft 124 kts 68°
2026-04-29 12:16 51.86415 -0.43447 1108 ft 122 kts 82°
2026-04-29 12:17 51.86574 -0.42109 962 ft 125 kts 77°
2026-04-29 12:17 51.86794 -0.40708 864 ft 132 kts 76°
2026-04-29 12:17 51.87062 -0.39248 689 ft 136 kts 76°
2026-04-29 12:17 51.87306 -0.37770 538 ft 137 kts 74°
2026-04-29 12:18 51.87505 -0.36557 530 ft 52 kts 76°
2026-04-29 12:18 51.87583 -0.36096 519 ft 26 kts 73°
2026-04-29 12:18 51.87637 -0.35923 514 ft 14 kts 22°
2026-04-29 12:18 51.87728 -0.35944 510 ft 12 kts 336°
2026-04-29 12:19 51.87780 -0.36033 510 ft 10 kts 281°
2026-04-29 12:19 51.87774 -0.36133 511 ft 8 kts 256°
2026-04-29 12:19 51.87759 -0.36222 512 ft 8 kts 255°
2026-04-29 12:19 51.87747 -0.36308 513 ft 7 kts 256°
2026-04-29 12:20 51.87736 -0.36378 515 ft 5 kts 256°
2026-04-29 12:20 51.87722 -0.36466 518 ft 7 kts 250°
2026-04-29 12:20 51.87706 -0.36534 520 ft 5 kts 251°
2026-04-29 12:20 51.87694 -0.36600 521 ft 6 kts 253°
2026-04-29 12:21 51.87678 -0.36692 522 ft 11 kts 254°
2026-04-29 12:21 51.87660 -0.36797 525 ft 2 kts 254°
2026-04-29 12:22 51.87660 -0.36800 525 ft 1 kts 254°
2026-04-29 12:22 51.87650 -0.36872 527 ft 10 kts 262°
2026-04-29 12:23 51.87695 -0.36954 527 ft 10 kts 339°
2026-04-29 12:23 51.87776 -0.36997 524 ft 13 kts 340°
2026-04-29 12:23 51.87874 -0.37051 521 ft 15 kts 341°
2026-04-29 12:23 51.87984 -0.37110 519 ft 17 kts 341°
2026-04-29 12:24 51.88042 -0.37171 519 ft 6 kts 281°
2026-04-29 12:24 51.88034 -0.37243 520 ft 6 kts 253°
2026-04-29 12:24 51.88028 -0.37299 521 ft 3 kts 279°
2026-04-29 12:24 51.88048 -0.37330 521 ft 7 kts 333°
2026-04-29 12:25 51.88063 -0.37340 521 ft 0 kts 338°